User: anonymous   Login
Location: Unspecified
(0.0000°N, 0.0000°E)
Time: 18:16:24
(UTC+00:00)
Language:

Tiangong 1 - Orbit

View from above orbital plane
View from above orbital plane
View from above satellite
View from above satellite

Ground track
Ground track

The orbit data is extracted from the following two-line orbital elements,

1 37820U 11053A   15115.44652821  .00037410  00000-0  46696-3 0  9994
2 37820 042.7667 229.1367 0011143 020.1609 076.6401 15.59115030205081
Epoch (UTC): 25 April 2015 10:43:00
Eccentricity: 0.0011143
inclination: 42.7667°
perigee height: 382 km
apogee height: 398 km
right ascension of ascending node: 229.1367°
argument of perigee: 20.1609°
revolutions per day: 15.59115030
mean anomaly at epoch: 76.6401°
orbit number at epoch: 20508

The dashed part of the orbit path shows where the satellite is in the earth's shadow,  

DLR